Terminal Aerodrome Forecast
Issued by NWS

Home | Current Version | Previous Version | Text Only | Print | Product List | Glossary On
Versions: 1 2 3 4 5 6 7 8 9 10 11 12 13 14 15 16 17 18 19
000
FTUS42 TJSJ 280540
TAFJSJ
TAF
TJSJ 280540Z 2806/2906 19003KT P6SM SKC
     FM281300 18010KT P6SM FEW025 FEW050
     FM281630 18010KT P6SM VCTS SCT020CB BKN040
     FM282300 10006KT P6SM SCT060=

USA.gov is the U.S. government's official web portal to all federal, state and local government web resources and services.